SCP
0 0 0 0 0 0 0 0 0 0 0 0 0 0 0 0 0 0 0 0 0 0 0 0 0 0 0 0 0 0 0 0 0 0 0 0 0 0 0 0 0 0 0
0 0 0 0 0 0 0 0 0 0 0 0 0 0 0 0 0 0 0 0 0 0 0 0 0 0 0 0 0 0 0 0 0 0 0 0 0 0 0 0 0 0 0
0 0 0 0 0 0 0 0 0 0 0 0 0 0 0 0 0 0 0 0 0 0 0 0 0 0 0 0 0 0 0 0 0 0 0 0 0 0 0 0 0 0 0
0 0 0 0 0 0 0 0 0 0 0 0 0 0 0 0 0 0 0 0 0 0 0 0 0 0 0 0 0 0 0 0 0 0 0 0 0 0 0 0 0 0 0
0 0 0 0 0 0 0 0 0 0 0 0 0 0 0 0 0 0 0 0 0 0 0 0 0 0 0 0 0 0 0 0 0 0 0 0 0 0 0 0 0 0 0
0 0 0 0 0 0 0 0 0 0 0 0 0 0 0 0 0 0 0 0 0 0 0 0 0 0 0 0 0 0 0 0 0 0 0 0 0 0 0 0 0 0 0
0 0 0 0 0 0 0 0 0 0 0 0 0 0 0 0 0 0 0 0 0 0 0 0 0 0 0 0 0 0 0 0 0 0 0 0 0 0 0 0 0 0 0
0 0 0 0 0 0 0 0 0 0 0 0 0 0 0 0 0 0 0 0 0 0 0 0 0 0 0 0 0 0 0 0 0 0 0 0 0 0 0 0 0 0 0
0 0 0 0 0 0 0 0 0 0 0 0 0 0 0 0 0 0 0 0 0 0 0 0 0 0 0 0 0 0 0 0 0 0 0 0 0 0 0 0 0 0 0
0 0 0 0 0 0 0 0 0 0 0 0 0 0 0 0 0 0 0 0 0 0 0 0 0 0 0 0 0 0 0 0 0 0 0 0 0 0 0 0 0 0 0
0 0 0 0 0 0 0 0 0 0 0 0 0 0 0 0 0 0 0 0 0 0 0 0 0 0 0 0 0 0 0 0 0 0 0 0 0 0 0 0 0 0 0
0 0 0 0 0 0 0 0 0 0 0 0 0 0 0 0 0 0 0 0 0 0 0 0 0 0 0 0 0 0 0 0 0 0 0 0 0 0 0 0 0 0 0
0 0 0 0 0 0 0 0 0 0 0 0 0 0 0 0 0 0 0 0 0 0 0 0 0 0 0 0 0 0 0 0 0 0 0 0 0 0 0 0 0 0 0
0 0 0 0 0 0 0 0 0 0 0 0 0 0 0 0 0 0 0 0 0 0 0 0 0 0 0 0 0 0 0 0 0 0 0 0 0 0 0 0 0 0 0
0 0 0 0 0 0 0 0 0 0 0 0 0 0 0 0 0 0 0 0 0 0 0 0 0 0 0 0 0 0 0 0 0 0 0 0 0 0 0 0 0 0 0
0 0 0 0 0 0 0 0 0 0 0 0 0 0 0 0 0 0 0 0 0 0 0 0 0 0 0 0 0 0 0 0 0 0 0 0 0 0 0 0 0 0 0
0 0 0 0 0 0 0 0 0 0 0 0 0 0 0 0 0 0 0 0 0 0 0 0 0 0 0 0 0 0 0 0 0 0 0 0 0 0 0 0 0 0 0
0 0 0 0 0 0 0 0 0 0 0 0 0 0 0 0 0 0 0 0 0 0 0 0 0 0 0 0 0 0 0 0 0 0 0 0 0 0 0 0 0 0 0
0 0 0 0 0 0 0 0 0 0 0 0 0 0 0 0 0 0 0 0 0 0 0 0 0 0 0 0 0 0 0 0 0 0 0 0 0 0 0 0 0 0 0
0 0 0 0 0 0 0 0 0 0 0 0 0 0 0 0 0 0 0 0 0 0 0 0 0 0 0 0 0 0 0 0 0 0 0 0 0 0 0 0 0 0 0
0 0 0 0 0 0 0 0 0 0 0 0 0 0 0 0 0 0 0 0 0 0 0 0 0 0 0 0 0 0 0 0 0 0 0 0 0 0 0 0 0 0 0
0 0 0 0 0 0 0 0 0 0 0 0 0 0 0 0 0 0 0 0 0 0 0 0 0 0 0 0 0 0 0 0 0 0 0 0 0 0 0 0 0 0 0
0 0 0 0 0 0 0 0 0 0 0 0 0 0 0 0 0 0 0 0 0 0 0 0 0 0 0 0 0 0 0 0 0 0 0 0 0 0 0 0 0 0 0
0 0 0 0 0 0 0 0 0 0 0 0 0 0 0 0 0 0 0 0 0 0 0 0 0 0 0 0 0 0 0 0 0 0 0 0 0 0 0 0 0 0 0
0 0 0 0 0 0 0 0 0 0 0 0 0 0 0 0 0 0 0 0 0 0 0 0 0 0 0 0 0 0 0 0 0 0 0 0 0 0 0 0 0 0 0
0 0 0 0 0 0 0 0 0 0 0 0 0 0 0 0 0 0 0 0 0 0 0 0 0 0 0 0 0 0 0 0 0 0 0 0 0 0 0 0 0 0 0
Wind_Speed
9 10 12 12 13 14 14 16 15 14 15 15 16 16 16 17 16 16 15 15 16 15 13 14 14 12 9 8 8 8 8 8 10 7 5 4 5 5 4 5 4 5 5
7 9 10 11 11 13 14 15 15 15 15 15 15 15 16 16 16 16 16 15 16 16 15 14 14 11 13 10 9 10 9 9 8 9 6 4 6 5 5 5 4 4 5
6 7 8 9 11 12 13 13 14 14 14 14 15 15 15 15 15 15 15 15 15 15 15 15 14 14 14 11 11 10 8 7 8 7 6 3 3 3 4 5 5 5 5
5 6 7 9 9 10 11 12 13 13 14 14 14 14 14 14 14 14 14 14 14 14 13 13 14 14 14 13 11 11 9 8 7 7 6 4 3 3 4 4 4 4 5
5 6 7 8 8 8 9 10 11 12 13 13 13 13 13 12 12 13 13 13 13 13 13 13 12 13 13 11 9 9 9 8 7 6 6 5 4 3 4 4 5 4 5
6 6 6 6 7 8 8 9 9 10 11 12 12 12 13 10 12 14 13 12 12 13 12 11 11 12 12 13 13 13 12 10 9 8 7 7 7 6 4 4 4 3 4
6 6 6 6 7 7 7 8 9 9 10 11 11 12 12 12 13 15 15 12 11 11 11 10 7 8 11 10 11 12 11 11 11 9 8 8 7 6 5 5 5 5 5
6 6 5 5 6 6 7 8 8 7 8 9 10 10 11 10 12 14 15 12 10 10 10 10 10 10 10 10 8 8 7 8 8 7 7 6 5 5 5 5 4 4 4
6 6 5 5 5 6 7 7 7 6 7 7 8 9 9 9 11 13 13 10 8 9 9 9 9 9 11 12 9 8 7 5 5 6 5 4 4 4 4 3 3 2 3
6 6 6 5 5 6 6 6 5 5 6 5 6 7 8 8 10 12 13 7 7 7 6 7 9 9 11 13 10 9 8 7 6 5 5 5 5 5 7 5 4 3 2
6 6 5 5 5 5 5 4 4 4 5 5 5 6 7 8 9 12 13 7 7 7 6 6 6 11 12 12 10 8 8 7 6 6 4 4 4 3 4 3 3 3 3
5 5 5 5 4 3 3 4 4 4 5 5 5 5 5 5 7 10 13 10 8 7 6 5 5 11 11 11 8 7 9 8 5 5 4 4 4 3 3 3 3 3 3
5 5 5 4 4 3 3 3 3 4 4 4 4 5 4 4 5 8 11 11 9 6 5 7 8 10 9 8 8 9 9 6 5 5 5 4 3 3 2 2 2 2 2
5 5 5 4 4 3 3 3 3 4 4 4 4 4 4 4 4 5 6 7 8 6 5 7 9 9 6 6 7 6 5 5 5 5 4 3 3 3 3 2 2 2 2
5 5 4 4 4 3 3 2 3 4 4 4 4 4 5 5 6 7 6 6 6 6 6 5 4 5 4 4 4 4 4 4 4 4 4 4 3 3 2 2 2 2 3
5 4 3 3 3 3 2 2 2 2 2 3 4 4 3 4 5 7 8 8 9 11 7 6 5 5 5 5 5 5 4 4 4 4 4 4 4 3 3 2 2 2 3
4 4 3 3 3 3 2 2 2 1 0 2 2 3 3 4 6 7 8 10 11 12 5 5 5 5 5 5 5 5 4 4 4 4 4 4 3 3 3 3 2 3 3
4 4 4 3 3 3 3 2 2 2 1 0 1 3 5 6 7 8 10 9 7 6 4 5 5 5 5 5 5 4 4 4 4 4 4 4 4 4 3 3 3 3 3
4 3 3 3 3 3 2 2 1 1 1 0 1 2 4 6 7 9 9 5 5 5 4 4 4 4 5 5 4 4 4 4 4 4 4 4 4 3 3 3 3 4 4
4 4 4 3 2 2 2 1 1 1 1 1 1 1 2 3 3 4 4 4 4 4 4 4 4 4 4 5 4 4 4 4 4 4 3 3 3 3 3 3 3 3 3
3 3 3 3 2 2 2 1 1 1 1 1 1 2 3 2 3 3 3 3 3 4 4 4 4 4 4 4 4 5 5 4 4 4 3 3 3 3 3 3 3 3 3
3 3 3 2 2 2 2 1 1 1 1 2 1 2 4 2 2 3 3 2 3 3 3 4 4 3 4 4 5 5 5 4 4 4 3 3 3 3 3 3 3 2 3
3 3 2 2 2 2 2 1 1 1 1 1 2 2 2 2 2 2 3 3 3 3 3 3 4 3 3 3 3 4 5 4 4 4 4 4 3 3 3 3 3 3 3
3 2 2 2 1 1 1 1 1 1 1 2 2 2 2 2 2 3 3 3 3 3 3 3 3 5 5 3 3 3 3 3 4 4 5 4 4 3 3 3 3 3 3
2 2 1 1 1 1 1 0 1 1 1 1 2 2 2 2 2 3 3 3 3 3 3 3 3 4 6 5 4 3 5 6 5 4 4 4 4 3 3 3 2 2 2
2 1 1 1 1 1 1 1 1 1 1 1 2 2 2 2 3 3 3 3 3 3 3 3 4 4 5 4 5 6 7 7 7 6 4 3 4 3 3 2 2 2 2
Wind_Direction
238 234 233 232 229 226 223 222 220 219 215 214 211 209 210 210 209 210 211 210 212 213 212 215 217 216 216 216 215 217 222 228 245 251 240 230 219 223 221 235 243 247 249
247 240 237 236 232 229 227 224 220 219 217 215 213 211 211 211 209 209 210 210 211 213 213 214 217 214 217 216 214 217 220 222 233 247 240 224 229 228 233 238 244 251 262
263 247 243 240 236 233 233 227 221 218 217 215 213 213 212 210 210 211 211 212 213 216 215 215 216 214 217 216 215 217 219 219 223 237 242 226 228 224 238 244 248 254 263
272 258 248 243 241 239 236 231 224 218 216 214 213 213 211 210 209 209 210 213 215 217 218 218 218 217 217 215 214 216 214 213 216 227 233 229 227 222 232 242 250 250 263
274 263 257 253 248 244 238 232 226 219 215 214 212 211 210 209 209 207 208 211 215 217 218 219 220 218 217 214 210 209 206 209 211 217 224 224 219 212 224 229 251 263 264
277 270 270 264 253 244 240 234 227 223 216 211 212 211 211 210 203 201 204 209 213 215 216 218 217 214 213 212 211 210 205 205 208 210 218 224 227 224 223 227 243 259 265
280 278 271 260 253 249 242 234 227 224 220 214 213 213 214 211 198 196 200 208 213 216 216 213 211 210 207 211 209 206 210 212 212 212 216 223 224 218 212 223 231 245 259
283 281 278 268 256 249 242 236 230 223 221 217 214 214 216 212 196 196 195 206 214 216 214 211 209 207 205 201 198 201 210 214 213 215 221 222 220 208 204 213 226 249 276
292 289 285 275 263 249 241 237 231 222 221 222 216 212 214 210 194 193 190 206 212 213 212 209 205 205 196 185 187 194 201 208 197 195 205 204 191 184 178 174 190 224 260
293 291 287 277 264 253 244 239 232 223 221 220 221 216 214 213 193 187 187 200 205 206 205 204 201 201 191 183 190 192 197 198 183 180 185 185 183 176 182 192 195 214 250
304 299 295 286 272 263 252 240 226 215 214 216 218 219 214 211 192 186 189 199 198 197 198 197 196 189 190 190 194 199 197 186 181 177 178 178 178 180 186 194 200 214 232
306 299 298 296 287 271 253 240 218 205 210 214 212 215 214 205 199 193 194 200 196 195 196 193 188 186 190 191 194 189 176 170 167 168 177 185 187 188 188 196 208 231 246
306 301 299 298 289 268 249 233 215 206 209 215 210 212 207 200 195 190 194 197 193 192 187 179 179 181 184 188 185 176 169 166 166 174 184 189 185 175 170 184 205 220 255
306 303 300 297 295 284 260 233 217 213 211 212 215 214 209 198 192 187 191 190 183 173 163 162 164 167 169 174 173 169 168 170 170 172 170 165 158 168 186 194 213 227 256
304 304 307 305 297 292 279 264 244 236 232 225 220 210 203 208 203 190 184 184 180 172 155 150 157 163 165 162 158 155 155 157 163 162 163 165 171 183 194 199 213 233 250
301 304 306 303 296 291 291 301 301 258 256 250 246 230 224 215 186 183 183 174 164 158 152 161 169 173 172 167 163 160 162 167 166 163 168 174 180 186 193 199 212 234 250
293 295 297 293 288 290 286 280 293 318 175 187 194 191 180 163 161 164 162 155 156 156 157 166 171 170 166 164 164 164 168 166 161 168 175 179 181 189 196 203 215 233 251
297 293 288 285 283 283 275 268 262 248 247 260 157 156 156 151 148 149 147 140 153 162 163 162 163 162 162 164 165 163 160 161 164 169 177 182 185 190 197 208 221 234 252
299 291 290 287 281 280 276 264 256 244 217 182 99 132 141 143 142 148 151 157 164 168 162 158 157 158 158 159 160 161 162 165 168 173 181 187 191 193 200 213 225 233 248
299 298 297 288 282 280 273 257 244 226 198 183 174 148 135 137 146 158 164 163 162 160 156 155 154 155 157 158 158 158 160 164 169 179 186 191 192 194 199 211 222 232 244
298 297 296 291 282 282 281 265 240 218 206 182 175 151 152 156 160 162 164 161 159 154 154 155 154 157 158 157 159 162 165 172 177 181 186 189 189 191 198 210 222 234 249
295 293 291 290 293 295 295 275 232 194 184 175 153 142 153 150 155 156 151 144 137 137 147 151 154 158 163 164 166 167 170 176 179 180 184 185 185 189 198 211 223 231 243
293 291 293 295 295 291 293 258 204 182 175 170 153 141 151 153 151 142 133 128 128 133 137 143 147 151 151 156 166 173 176 179 179 180 181 180 185 193 200 208 218 229 242
289 284 285 290 291 280 272 244 192 171 166 161 152 147 148 144 138 130 130 130 130 132 133 140 148 152 152 155 161 167 167 166 168 176 179 180 186 193 198 203 213 222 236
295 292 292 288 277 269 257 210 163 155 153 153 145 139 139 140 138 131 126 124 124 128 132 139 146 150 153 157 160 164 166 169 174 169 171 174 178 186 189 196 207 221 238
307 303 298 292 274 249 219 181 159 155 150 142 136 138 143 144 141 135 131 129 128 129 133 140 145 149 156 159 159 162 167 170 171 172 168 165 169 175 178 185 200 217 228